Probability
0 0 0 0 0 0 0 0 0 0 0 0 0 0 13 19 13 39 65 71 77 77 65 61 58 61 58 68 68 52 52 52 48 45 42 45 61 61 52 52 45 45 39 32
0 0 0 0 0 0 0 0 0 0 0 0 0 0 10 19 19 32 58 68 74 74 65 68 58 65 61 52 61 55 52 48 48 48 45 48 58 55 48 52 42 35 32 35
0 0 0 0 0 0 0 0 0 0 0 0 0 0 13 16 23 26 42 45 68 68 65 68 58 61 58 52 61 55 55 65 58 48 52 45 55 55 48 42 42 35 32 29
0 0 0 0 0 0 0 0 0 0 0 0 0 0 16 10 26 29 32 42 55 61 68 68 61 55 55 48 55 65 65 61 65 52 52 45 42 42 48 42 48 32 32 26
0 0 0 0 0 0 0 0 0 0 0 0 0 0 10 13 19 26 29 45 52 61 65 55 55 48 45 48 45 55 68 61 58 55 55 58 52 48 45 45 45 39 35 29
0 0 0 0 0 0 0 0 0 0 0 0 0 0 10 3 13 29 26 42 61 65 61 55 52 52 55 52 45 58 61 65 55 55 55 55 52 48 39 42 45 45 48 32
0 0 0 0 0 0 0 0 0 0 0 0 0 0 13 6 0 16 29 48 58 65 61 55 52 55 48 48 48 61 55 55 48 55 48 58 55 55 42 39 39 39 29 29
0 0 0 0 0 0 0 0 0 0 0 0 0 0 3 3 3 19 32 52 55 65 61 61 55 55 52 48 55 55 48 48 48 48 48 52 55 45 39 48 32 35 32 29
0 0 0 0 0 0 0 0 0 0 0 0 0 3 3 10 6 13 29 45 52 58 68 55 52 55 52 48 48 52 58 55 52 42 45 58 55 48 39 48 39 35 35 23
0 0 0 0 0 0 0 0 0 0 0 0 0 0 3 16 10 13 35 45 42 52 61 58 52 52 55 45 52 48 55 61 55 45 35 29 52 55 48 42 39 35 35 35
0 0 0 0 0 0 0 0 0 0 0 0 0 0 3 6 10 23 29 52 45 45 45 65 58 48 48 42 45 45 48 55 52 45 39 45 45 52 52 45 35 42 39 45
0 0 0 0 0 0 0 0 0 0 3 3 0 0 0 6 6 16 26 45 52 52 45 61 65 55 52 45 45 48 48 45 52 52 55 58 58 58 52 45 52 52 45 42
0 0 0 0 0 0 0 0 0 0 3 0 0 0 6 10 13 26 45 61 74 61 65 61 65 65 61 52 52 45 52 52 48 55 58 65 58 55 58 58 68 71 61 52
0 0 0 0 0 0 0 0 0 0 0 0 0 6 13 16 16 29 42 71 81 81 84 74 74 71 68 65 61 48 42 55 55 55 61 61 61 55 52 61 65 65 55 58
0 0 0 0 0 0 0 0 0 0 0 0 0 0 6 6 19 29 52 71 77 87 87 90 84 81 81 74 68 58 58 55 61 68 61 71 65 61 58 58 55 52 58 45
0 0 0 0 0 0 0 0 0 0 0 0 0 3 6 10 19 35 65 74 84 94 90 87 84 84 84 81 68 68 68 65 71 65 65 68 61 55 58 55 52 55 48 48
0 0 0 0 0 0 0 0 0 0 0 0 0 6 13 26 32 42 65 74 81 87 87 84 81 84 81 77 74 71 71 68 65 61 58 61 61 58 52 52 45 45 48 45
0 6 3 0 0 0 0 0 0 0 0 0 10 16 23 26 32 48 58 74 81 77 77 81 71 74 74 71 71 68 61 61 61 58 58 61 55 55 45 39 39 39 39 39
0 3 0 0 0 0 0 0 0 0 3 13 13 13 23 16 29 52 61 71 68 68 74 74 74 71 71 74 68 61 58 58 58 58 58 55 48 45 45 39 42 42 35 29
0 0 0 0 0 0 0 0 0 0 3 19 35 45 32 29 29 55 68 68 65 65 65 65 65 68 68 65 68 65 55 52 48 48 48 45 45 35 35 35 32 29 16 16
0 0 0 0 0 0 0 0 0 0 3 26 35 48 45 65 58 65 65 65 61 55 55 55 55 55 52 52 55 52 42 42 45 45 39 39 32 29 26 19 16 13 6 0
0 0 0 0 0 0 0 3 3 10 16 13 19 39 42 39 61 55 48 48 48 48 48 42 42 42 35 39 35 35 35 32 26 23 16 13 13 6 10 10 10 3 0 0
0 0 3 0 0 0 3 3 3 10 6 6 13 16 29 32 39 42 29 29 26 23 23 26 29 29 29 32 32 26 23 23 13 13 13 10 6 6 10 6 3 3 3 3
0 0 0 0 0 0 0 3 3 0 3 3 3 16 19 29 29 26 19 23 19 19 16 19 19 16 16 23 19 19 13 10 6 3 0 0 0 0 0 0 0 0 0 0
0 0 0 0 0 0 0 0 0 3 3 3 6 16 13 26 16 23 23 19 10 10 10 10 6 3 3 3 3 3 3 3 3 3 0 0 0 0 0 0 0 0 0 0
0 0 0 3 3 0 0 0 3 0 0 0 6 6 13 16 13 10 10 10 6 3 3 3 3 0 0 0 0 0 0 3 3 3 3 0 0 0 0 0 0 0 0 0
Height
5869 5871 5870 5870 5871 5871 5872 5873 5874 5874 5874 5873 5871 5869 5866 5864 5861 5858 5855 5851 5848 5845 5842 5839 5836 5834 5832 5831 5831 5831 5831 5831 5834 5837 5841 5844 5848 5851 5855 5858 5861 5864 5867 5869
5866 5866 5867 5866 5867 5868 5868 5869 5870 5871 5870 5870 5868 5866 5863 5860 5857 5856 5853 5850 5846 5843 5840 5838 5835 5833 5831 5830 5830 5830 5830 5831 5832 5835 5839 5842 5846 5849 5853 5856 5859 5862 5865 5867
5861 5863 5862 5863 5863 5864 5865 5866 5867 5867 5866 5866 5865 5862 5859 5858 5854 5852 5850 5847 5844 5841 5839 5837 5835 5832 5830 5829 5829 5828 5829 5829 5831 5834 5837 5840 5844 5847 5851 5854 5857 5861 5863 5866
5856 5858 5858 5859 5860 5860 5861 5862 5863 5863 5863 5862 5862 5858 5857 5854 5850 5847 5846 5845 5842 5840 5837 5835 5833 5831 5830 5829 5828 5827 5828 5829 5830 5833 5836 5839 5842 5846 5849 5852 5855 5858 5861 5864
5851 5853 5853 5855 5856 5856 5857 5858 5859 5859 5859 5858 5858 5856 5854 5850 5847 5844 5843 5842 5841 5840 5837 5835 5833 5830 5828 5827 5827 5826 5826 5827 5829 5831 5834 5837 5840 5844 5847 5850 5853 5856 5859 5862
5847 5849 5849 5850 5852 5852 5853 5854 5854 5854 5855 5854 5854 5853 5851 5848 5846 5844 5843 5842 5840 5839 5836 5834 5832 5829 5827 5826 5825 5824 5825 5826 5827 5829 5831 5834 5838 5842 5845 5847 5851 5854 5857 5860
5842 5844 5845 5846 5847 5848 5850 5851 5851 5852 5852 5851 5848 5847 5848 5846 5846 5846 5844 5842 5840 5838 5835 5833 5831 5829 5827 5825 5824 5823 5823 5824 5825 5827 5829 5832 5835 5839 5842 5845 5848 5852 5855 5858
5838 5840 5842 5842 5843 5844 5846 5848 5849 5850 5850 5846 5841 5839 5841 5844 5843 5843 5842 5840 5839 5837 5834 5831 5829 5827 5825 5824 5823 5822 5822 5822 5823 5825 5827 5830 5833 5836 5840 5843 5846 5849 5852 5855
5836 5839 5840 5839 5840 5840 5841 5843 5847 5848 5846 5845 5842 5839 5836 5839 5840 5840 5839 5839 5837 5835 5833 5831 5829 5826 5825 5823 5822 5822 5821 5821 5822 5823 5825 5827 5831 5834 5837 5841 5844 5847 5850 5852
5830 5833 5835 5836 5836 5837 5838 5840 5842 5843 5843 5843 5843 5839 5836 5833 5837 5837 5837 5836 5835 5834 5832 5830 5828 5826 5825 5823 5822 5821 5821 5821 5821 5822 5824 5826 5829 5832 5835 5839 5842 5845 5847 5850
5824 5827 5831 5832 5832 5834 5835 5836 5837 5839 5840 5840 5839 5838 5833 5833 5833 5833 5833 5834 5834 5832 5831 5829 5828 5826 5824 5823 5822 5821 5821 5821 5821 5822 5823 5825 5828 5831 5833 5837 5840 5842 5845 5847
5819 5821 5824 5827 5829 5830 5832 5833 5834 5835 5835 5836 5836 5836 5831 5829 5829 5829 5831 5832 5832 5831 5830 5828 5827 5826 5825 5823 5823 5822 5821 5821 5821 5821 5823 5824 5827 5829 5832 5835 5837 5840 5842 5844
5811 5814 5818 5822 5826 5827 5828 5829 5830 5831 5832 5832 5834 5833 5829 5825 5826 5827 5829 5829 5829 5829 5828 5827 5826 5825 5824 5823 5823 5822 5821 5821 5821 5822 5823 5824 5825 5828 5830 5832 5835 5837 5839 5841
5805 5807 5812 5817 5818 5817 5819 5821 5824 5826 5828 5829 5830 5829 5825 5824 5825 5824 5823 5824 5826 5826 5826 5826 5825 5824 5823 5823 5822 5822 5821 5821 5821 5822 5822 5823 5825 5826 5828 5830 5832 5834 5836 5838
5796 5800 5803 5807 5809 5811 5811 5813 5816 5818 5821 5824 5825 5824 5822 5820 5819 5820 5820 5821 5823 5824 5824 5823 5823 5823 5822 5821 5821 5821 5821 5821 5821 5821 5822 5823 5823 5825 5826 5828 5829 5831 5833 5834
5787 5791 5795 5798 5803 5805 5805 5807 5809 5811 5815 5817 5819 5819 5817 5815 5815 5815 5816 5818 5819 5820 5821 5820 5820 5820 5820 5820 5820 5820 5820 5820 5820 5820 5821 5822 5822 5822 5824 5825 5826 5828 5829 5830
5779 5783 5787 5791 5795 5797 5799 5803 5804 5805 5807 5810 5811 5813 5810 5810 5811 5810 5811 5812 5814 5816 5817 5817 5817 5817 5818 5818 5817 5817 5818 5818 5818 5819 5819 5819 5820 5820 5821 5822 5823 5824 5825 5826
5773 5775 5779 5783 5787 5788 5795 5797 5797 5798 5800 5802 5802 5803 5803 5804 5804 5804 5804 5806 5810 5810 5811 5813 5813 5813 5814 5814 5814 5814 5815 5815 5815 5816 5816 5817 5817 5817 5818 5818 5819 5820 5820 5821
5765 5768 5771 5775 5778 5781 5787 5789 5789 5791 5792 5792 5793 5794 5795 5796 5797 5799 5800 5802 5803 5805 5806 5808 5807 5809 5810 5810 5811 5811 5811 5811 5812 5812 5813 5813 5813 5814 5813 5814 5814 5814 5815 5816
5757 5759 5764 5767 5770 5774 5779 5780 5779 5783 5783 5781 5783 5785 5787 5789 5791 5792 5794 5796 5797 5798 5800 5802 5803 5804 5806 5806 5806 5807 5807 5808 5808 5808 5808 5808 5809 5809 5808 5808 5808 5808 5809 5809
5750 5752 5755 5758 5761 5765 5769 5769 5770 5774 5772 5772 5775 5777 5779 5780 5782 5784 5786 5788 5791 5793 5795 5797 5798 5799 5800 5801 5802 5802 5803 5803 5803 5804 5804 5804 5804 5804 5803 5803 5803 5803 5803 5803
5743 5745 5748 5751 5754 5759 5757 5759 5761 5762 5763 5765 5767 5769 5771 5772 5773 5776 5778 5781 5784 5786 5788 5790 5792 5793 5794 5795 5796 5797 5797 5798 5798 5798 5798 5798 5798 5798 5798 5797 5797 5796 5796 5795
5735 5738 5740 5743 5746 5746 5748 5750 5751 5753 5755 5756 5759 5760 5762 5764 5764 5768 5771 5773 5776 5778 5781 5783 5785 5786 5788 5789 5790 5791 5791 5791 5792 5792 5792 5791 5791 5791 5791 5790 5790 5789 5789 5788
5728 5730 5732 5734 5737 5738 5740 5741 5743 5745 5747 5749 5750 5752 5754 5755 5757 5759 5762 5765 5768 5770 5773 5775 5777 5779 5781 5782 5783 5784 5784 5785 5785 5785 5785 5784 5784 5784 5784 5783 5782 5781 5780 5779
5720 5722 5724 5726 5729 5730 5732 5733 5735 5736 5738 5740 5741 5743 5745 5747 5749 5752 5755 5757 5760 5763 5765 5768 5770 5771 5773 5775 5775 5776 5777 5777 5777 5777 5777 5777 5777 5776 5776 5775 5774 5773 5771 5770
5713 5715 5717 5719 5721 5722 5724 5725 5727 5728 5730 5732 5733 5735 5736 5738 5741 5744 5747 5750 5752 5755 5758 5760 5763 5764 5766 5767 5768 5769 5769 5770 5770 5770 5770 5770 5769 5769 5768 5767 5765 5763 5762 5760
Wind_Speed
19 18 15 13 12 12 12 13 14 13 15 16 16 17 17 17 19 20 21 22 22 21 19 16 15 13 10 8 9 9 9 10 15 18 18 17 17 16 17 16 15 13 12 10
21 18 15 15 13 14 15 15 15 16 16 16 16 17 17 18 17 19 20 22 21 20 18 16 15 13 10 8 8 9 9 10 14 15 17 17 17 16 16 15 15 14 13 11
21 18 16 16 15 16 16 15 15 16 16 15 16 17 17 18 18 18 17 18 20 19 17 16 15 13 10 8 8 8 9 10 13 14 16 16 16 16 15 15 15 15 14 13
21 17 17 18 17 16 16 14 15 16 17 16 16 18 18 19 19 17 16 17 17 17 17 16 15 13 10 9 8 8 9 11 12 14 15 16 16 16 15 15 15 15 15 14
20 18 18 19 18 17 16 15 16 17 17 17 16 16 16 19 19 16 17 20 17 17 17 16 15 13 11 9 8 8 8 11 12 14 15 16 16 16 16 16 16 16 15 15
20 18 19 18 18 18 16 16 16 16 15 15 14 15 15 17 19 18 19 21 19 18 16 15 14 13 11 9 8 7 8 10 12 14 15 16 17 17 16 16 17 17 16 15
20 19 18 18 18 16 16 16 14 13 15 16 16 15 12 16 16 18 20 20 18 17 16 14 13 12 11 10 8 6 7 9 11 13 15 15 17 17 17 17 16 16 16 15
17 16 15 17 17 16 16 16 15 15 18 21 20 15 11 15 14 16 18 18 18 16 15 13 13 13 11 9 7 5 6 7 9 12 14 15 15 16 16 16 16 16 15 15
12 13 13 15 16 16 16 17 15 17 19 22 22 16 9 11 13 14 15 16 17 16 14 13 12 11 10 8 6 5 5 7 9 10 13 14 15 16 16 16 16 16 16 15
19 16 12 15 17 16 16 16 16 19 20 19 18 19 16 10 10 13 14 16 16 14 13 12 11 10 10 8 6 4 4 5 8 10 12 14 15 16 15 16 15 15 16 16
22 23 17 16 16 14 15 16 18 18 18 19 19 21 20 14 11 10 13 15 15 15 13 11 10 9 8 8 7 4 3 4 6 8 11 12 13 15 15 15 16 16 17 16
23 24 23 20 18 16 15 16 17 19 19 19 19 22 18 10 8 10 13 16 16 14 13 11 9 9 8 7 6 4 3 2 4 6 8 10 12 14 16 15 15 16 16 16
27 26 25 22 18 18 18 18 18 19 20 20 17 22 20 13 11 12 14 17 16 15 13 12 10 9 8 7 6 5 3 2 2 4 5 6 9 12 14 15 15 16 17 17
31 31 28 23 22 25 26 24 22 21 21 20 18 22 23 18 15 14 15 15 16 14 13 13 11 10 9 8 6 5 4 4 3 3 5 7 8 10 13 14 15 15 16 17
34 33 32 30 28 26 26 26 26 25 24 23 22 23 24 21 18 18 17 17 17 15 15 14 13 12 10 9 8 7 6 5 5 5 6 7 9 11 12 13 15 16 16 17
35 35 34 33 31 29 27 24 24 24 24 25 25 24 25 23 22 20 21 20 19 18 16 15 14 13 12 11 10 9 8 8 8 7 8 8 9 11 12 14 15 15 17 19
31 34 35 34 31 32 31 25 24 24 23 25 26 28 29 29 27 26 24 21 21 21 19 17 15 14 14 13 13 12 11 11 11 10 10 10 11 12 14 15 16 17 18 19
32 32 32 33 33 34 29 28 28 28 28 30 32 33 34 34 31 30 26 25 25 23 21 20 18 16 16 15 15 15 14 13 13 12 13 13 13 14 15 16 17 18 19 20
34 34 34 32 32 32 29 29 31 31 32 34 36 37 37 37 35 33 32 30 28 26 24 23 20 19 18 17 17 16 15 15 15 15 15 15 16 16 17 18 19 20 21 22
33 34 33 32 31 29 26 27 31 32 34 37 37 37 36 37 37 36 33 32 32 29 28 26 24 22 21 20 19 18 18 18 18 18 18 18 19 19 20 20 21 22 23 24
29 31 31 31 31 29 29 30 31 31 34 36 35 35 36 36 36 35 34 33 33 32 31 29 27 25 24 23 22 21 21 21 20 20 20 21 21 21 22 22 23 23 24 25
28 28 29 29 29 29 33 33 35 36 36 36 35 35 35 36 37 36 35 35 35 34 34 32 30 29 28 26 25 24 24 24 23 23 24 24 24 25 25 25 26 26 27 28
30 29 28 28 29 31 32 34 36 36 36 35 35 35 35 35 35 35 34 34 35 35 35 34 33 32 30 29 28 27 27 27 27 27 27 27 28 28 28 28 29 30 31 31
29 30 30 30 30 31 32 33 33 33 34 34 34 34 34 35 35 34 35 35 35 35 35 34 33 33 32 31 31 31 30 30 29 30 30 30 30 30 30 31 31 32 34 35
30 30 29 30 30 31 31 31 32 32 31 31 32 32 33 33 33 33 33 34 34 33 34 33 33 33 33 32 32 32 32 32 32 32 32 32 31 31 31 32 33 34 35 35
28 27 27 27 28 29 29 29 29 29 29 30 30 31 32 32 32 32 32 33 32 32 32 32 32 33 33 33 33 33 34 34 34 34 33 32 32 32 32 33 34 34 34 35
Wind_Direction
283 286 290 286 286 283 269 260 261 265 268 273 284 288 291 293 305 315 319 325 328 331 331 329 328 324 314 290 271 266 262 243 224 218 217 213 207 209 211 211 212 213 212 214
280 283 282 278 276 273 271 264 261 262 263 272 282 284 283 291 300 311 317 324 328 330 332 331 327 327 317 300 286 273 258 235 222 216 213 209 208 209 211 210 213 213 213 216
278 281 280 279 273 272 267 264 262 262 269 271 279 281 286 288 296 306 316 324 329 330 331 333 331 330 322 308 291 280 254 232 216 208 207 207 210 211 213 213 213 212 214 214
272 271 266 270 273 269 265 264 265 264 267 270 272 279 290 292 295 310 319 323 326 331 331 334 335 330 322 310 298 281 255 233 219 212 208 210 210 209 213 215 214 213 214 213
268 269 266 264 267 264 257 255 259 262 264 263 262 272 283 292 299 308 320 323 327 329 330 331 333 332 324 315 299 282 254 230 220 212 211 215 214 214 216 217 217 216 215 215
260 259 264 265 261 261 257 253 256 260 263 265 265 264 270 283 298 313 317 317 323 324 326 328 330 330 328 317 309 287 251 233 221 215 214 216 216 218 219 219 217 216 218 219
258 255 255 259 257 253 255 255 254 264 271 271 260 252 258 274 293 306 309 315 320 321 324 325 330 328 328 325 321 292 251 238 229 218 214 213 215 216 217 214 215 218 218 220
255 265 263 259 257 242 241 246 248 253 267 277 278 262 238 260 285 299 303 311 317 320 324 326 330 330 330 329 325 309 255 240 227 217 213 212 214 212 211 213 216 215 217 220
229 259 263 254 255 248 234 238 246 259 270 285 295 298 285 269 287 297 304 311 316 319 325 327 329 332 336 332 323 316 278 242 227 221 218 213 210 210 212 214 213 213 218 223
213 224 233 247 254 252 238 231 238 242 255 265 273 278 266 261 277 287 302 308 312 316 324 325 326 331 337 339 329 312 290 244 231 221 212 209 209 209 212 212 212 215 220 223
222 221 224 237 252 247 251 237 230 239 245 256 269 274 277 272 268 285 297 302 304 313 318 321 322 329 339 343 340 317 290 254 230 220 215 212 211 212 212 213 216 220 224 226
232 229 228 230 239 249 241 246 242 241 241 246 266 280 281 280 284 291 296 298 299 306 310 315 317 320 329 335 338 334 319 276 233 225 221 218 219 218 216 216 220 224 227 231
228 228 230 231 233 237 237 239 243 246 247 248 257 275 277 288 275 274 282 287 291 297 302 305 308 314 317 320 322 321 318 318 275 230 216 216 219 219 220 222 226 229 233 236
232 230 227 224 232 232 228 226 228 236 245 251 253 267 274 278 265 264 268 272 280 284 291 295 298 305 307 308 308 302 297 288 273 246 229 226 224 223 223 226 229 232 236 240
235 233 232 226 229 242 242 231 224 225 231 242 250 257 268 274 266 265 270 271 274 277 282 286 289 293 296 296 295 291 284 276 270 261 242 236 231 230 230 234 236 238 241 243
237 234 233 232 230 238 248 245 241 236 233 237 243 254 261 267 266 263 268 268 269 273 274 276 282 284 285 287 287 284 278 270 265 259 252 248 246 242 240 240 243 247 249 251
242 240 237 235 233 236 241 246 247 245 243 245 246 247 252 257 260 259 257 261 267 270 269 270 272 276 280 282 283 279 275 271 266 262 258 256 258 255 253 253 253 255 256 257
241 243 242 239 235 237 237 240 245 247 248 248 248 248 248 250 251 252 254 258 263 264 266 268 271 273 278 278 279 277 272 272 269 266 268 268 267 267 263 261 259 260 264 264
240 242 243 242 242 242 239 240 243 245 247 246 247 247 247 249 251 254 255 257 259 260 264 266 267 270 275 275 274 274 270 270 270 270 269 270 271 271 269 267 264 264 266 267
242 243 243 243 242 242 241 242 246 246 249 248 247 248 248 249 250 250 253 254 257 257 261 264 264 267 270 272 270 272 270 269 271 273 274 274 273 274 273 270 267 267 269 271
243 244 244 244 245 243 239 238 242 245 247 249 250 250 250 250 249 251 252 252 254 255 258 260 261 264 266 268 268 268 268 270 271 275 277 278 277 276 276 274 272 270 271 274
238 242 246 245 244 242 241 240 242 245 248 251 252 252 251 251 250 251 251 251 251 253 256 257 259 260 262 265 266 268 269 271 273 275 277 279 280 280 278 276 275 274 275 277
235 237 239 239 240 241 244 246 248 249 250 252 253 252 251 252 250 249 249 249 250 252 253 255 257 257 259 262 265 268 271 272 272 276 278 277 279 280 280 276 275 275 276 278
236 237 239 240 242 245 247 249 251 252 252 254 254 253 252 250 251 250 249 249 250 250 252 253 254 256 257 260 263 267 270 272 273 274 277 279 279 279 278 278 277 278 278 280
238 242 243 244 247 248 248 249 251 252 253 253 253 252 250 249 249 248 247 247 249 250 251 252 253 255 258 260 262 265 267 270 272 273 274 275 276 277 276 277 279 282 283 283
239 243 246 248 249 249 249 250 251 253 252 252 251 250 249 247 248 247 247 248 247 248 250 251 253 256 259 261 263 264 268 271 272 272 273 274 276 277 277 278 281 282 283 285